Погода в Пинцоло

Италия     46°09′40″N   10°45′55″E
В апреле 2022 года жителям России запретили посещать сайт meteo.paraplan.net по решению Генеральной прокуратуры. Аудитория сайта уменьшилась в 10 раз. Владельцы сайта не видят смысла в поддержке погодного сервера в таких условиях. Сайт будет закрыт в октябре.
темп.,
°C
ветер,
м/с
пор.,
м/с
влажн.,
%
обл.,
%
осадки,
мм/ч
давл.,
гПа
погр.,
м
25 сентября, вс
вс2523:00+3вюв1198100 0.5 1015296
02:00+3ссв1199100 0.7 1015214
05:00+4ссв119598 0.8 1013159
08:00+4ссв119491 1.1 1012173
11:00+5юв119092 0.3 1012304
14:00+6ю228987 1.6 1011497
17:00+7ююз238594 1.4 1010538
20:00+5зюз2290100 2.1 101152
26 сентября, пн
пн2623:00+4зюз118978 0.3 101118
02:00+3зсз228781 0.4 101026
05:00+3ссз218866 0.1 100935
08:00+2ссз21885 0.1 100921
11:00+6юв227456 0.1 1008840
14:00+7ю227592 1.3 1006718
17:00+7ююз22746 1.4 1003684
20:00+3зюз229193 1.9 100417
27 сентября, вт
вт2723:00+3з2294100 0.2 100451
02:00+1зюз22939 0.3 100416
05:00+1з229110 0.0 100240
08:00+2зсз328920 0.0 1002139
11:00+7вюв126553 0.0 10001069
14:00+8ююв236156 0.6 10001204
17:00+8ююв236370 0.5 999720
20:00+3юз219652 1.3 100216
28 сентября, ср
ср2823:00+4зюз229291 1.0 100286
02:00+2ююз119590 2.9 100355
05:00+1зюз1194100 0.2 100332
08:00+1з229091 0.2 100377
11:00+5ююз2375100 0.0 1000887
14:00+6ююз2376100 0.2 1000889
17:00+5ююз128590 0.3 999416
20:00+4ююз119270 0.5 100128
29 сентября, чт
чт2923:00+3зюз119087 0.0 100138
02:00+2з229084 0.0 100123
05:00+2сз119189 0.0 100116
08:00+2сз1197100 0.2 1002144
11:00+3ю1293100 1.2 1002399
14:00+6ююв2387100 2.1 1002853
17:00+4ююв2399100 3.1 1002426
20:00+4ю1299100 4.7 1004217